Orlando, FL

3:51 PM EST on December 09, 2019 (GMT -0500)
Executive

Weather History for KORL - November, 2019

Change the Weather History Date:

Saturday, November 16, 2019

  Actual Average Record
Temperature  
Mean Temperature 58 °F -  
Max Temperature 63 °F 75 °F 84 °F (2011)
Min Temperature 52 °F 58 °F 45 °F (2007)
Degree Days  
Heating Degree Days 8    
Growing Degree Days 8 (Base 50)    
Moisture  
Dew Point 50 °F    
Average Humidity 76    
Maximum Humidity 90    
Minimum Humidity 62    
Precipitation  
Precipitation 0.00 in - - ()
Sea Level Pressure  
Sea Level Pressure 29.92 in    
Wind  
Wind Speed 12 mph ()    
Max Wind Speed 18 mph    
Max Gust Speed 23 mph    
Visibility 9.7 miles    
Events      
Averages and records for this station are not official NWS values.
T = Trace of Precipitation, MM = Missing Value Source: Averaged Metar Reports

Daily Weather History Graph

Daily Weather History Graph

Search for Another Location

Airport or City:

Astronomy

Nov. 16, 2019 Rise Set
Actual Time 6:48 AM EST 5:31 PM EST
Civil Twilight 6:23 AM EST 5:56 PM EST
Nautical Twilight 5:54 AM EST 6:24 PM EST
Astronomical Twilight 5:26 AM EST 6:52 PM EST
Moon 9:10 PM EST (11/16) 10:32 AM EST (11/16)
Length of Visible Light 11h 32m
Length of Day
10h 42m
Waning Gibbous, 82% of the Moon is Illuminated
Nov 16
Waning Gibbous
Nov 19
Last Quarter
Nov 26
New
Dec 4
First Quarter
Dec 12
Full

Hourly Weather History & Observations

Time (EST) Temp. Dew Point Humidity Pressure Visibility Wind Dir Wind Speed Gust Speed Precip Events Conditions
12:34 AM 59.0 °F 55.0 °F 87% 29.91 in 7.0 mi West 12.7 mph - N/A   Overcast
12:53 AM 57.9 °F 55.0 °F 90% 29.92 in 4.0 mi WNW 15.0 mph - N/A   Overcast
1:53 AM 57.0 °F 54.0 °F 89% 29.92 in 10.0 mi WNW 9.2 mph - 0.00 in   Overcast
2:17 AM 57.9 °F 54.0 °F 87% 29.90 in 10.0 mi WNW 11.5 mph - N/A   Overcast
2:53 AM 57.0 °F 53.1 °F 87% 29.91 in 10.0 mi West 15.0 mph - N/A   Overcast
3:03 AM 57.0 °F 53.1 °F 87% 29.89 in 10.0 mi West 13.8 mph - N/A   Overcast
3:53 AM 57.0 °F 50.0 °F 77% 29.89 in 10.0 mi WNW 12.7 mph - N/A   Overcast
4:53 AM 57.0 °F 50.0 °F 77% 29.90 in 10.0 mi WNW 15.0 mph - N/A   Overcast
5:53 AM 57.0 °F 50.0 °F 77% 29.91 in 10.0 mi NW 10.4 mph - N/A   Mostly Cloudy
7:53 AM 57.9 °F 51.1 °F 78% 29.92 in 10.0 mi NW 11.5 mph - N/A   Overcast
8:53 AM 59.0 °F 50.0 °F 72% 29.92 in 10.0 mi NW 16.1 mph - N/A   Partly Cloudy
9:18 AM 59.0 °F 50.0 °F 72% 29.91 in 10.0 mi WNW 16.1 mph 21.9 mph N/A   Mostly Cloudy
9:25 AM 60.1 °F 50.0 °F 69% 29.91 in 10.0 mi NW 12.7 mph 21.9 mph N/A   Scattered Clouds
9:53 AM 62.1 °F 48.9 °F 62% 29.92 in 10.0 mi WNW 18.4 mph 23.0 mph N/A   Partly Cloudy
10:10 AM 62.1 °F 48.9 °F 62% 29.91 in 10.0 mi West 13.8 mph 20.7 mph N/A   Mostly Cloudy
10:37 AM 63.0 °F 50.0 °F 63% 29.90 in 10.0 mi West 15.0 mph - N/A   Scattered Clouds
10:53 AM 62.1 °F 48.9 °F 62% 29.91 in 10.0 mi West 13.8 mph - N/A   Mostly Cloudy
11:53 AM 63.0 °F 50.0 °F 63% 29.90 in 10.0 mi WNW 16.1 mph - N/A   Mostly Cloudy
12:53 PM 60.1 °F 48.9 °F 67% 29.90 in 10.0 mi NNW 13.8 mph - N/A   Overcast
1:53 PM 60.1 °F 48.9 °F 67% 29.89 in 10.0 mi WNW 12.7 mph - N/A   Overcast
2:53 PM 59.0 °F 48.9 °F 69% 29.89 in 10.0 mi NW 11.5 mph 19.6 mph N/A   Overcast
3:31 PM 57.0 °F 48.9 °F 74% 29.87 in 10.0 mi NW 13.8 mph - N/A   Overcast
3:53 PM 57.0 °F 48.9 °F 74% 29.89 in 10.0 mi NW 10.4 mph - N/A   Overcast
4:53 PM 55.9 °F 48.9 °F 77% 29.89 in 10.0 mi NW 12.7 mph - N/A   Overcast
5:53 PM 55.0 °F 50.0 °F 83% 29.92 in 10.0 mi NNW 10.4 mph - 0.00 in   Overcast
6:53 PM 54.0 °F 48.9 °F 83% 29.94 in 10.0 mi NNW 8.1 mph - N/A   Overcast
7:53 PM 54.0 °F 48.0 °F 80% 29.95 in 10.0 mi NNW 13.8 mph - N/A   Overcast
8:53 PM 53.1 °F 46.9 °F 80% 29.97 in 10.0 mi NNW 15.0 mph 20.7 mph N/A   Overcast
9:50 PM 53.6 °F 46.4 °F 77% 29.94 in 10.0 mi NNW 11.5 mph - N/A   Overcast
9:53 PM 53.1 °F 46.9 °F 80% 29.96 in 10.0 mi NW 11.5 mph - N/A   Overcast
10:46 PM 53.1 °F 46.9 °F 80% 29.94 in 10.0 mi NW 8.1 mph - N/A   Overcast
10:53 PM 53.1 °F 46.9 °F 80% 29.96 in 10.0 mi NW 8.1 mph - N/A   Overcast
11:10 PM 52.0 °F 46.9 °F 83% 29.94 in 10.0 mi WNW 10.4 mph - N/A   Overcast
11:53 PM 52.0 °F 48.0 °F 86% 29.95 in 8.0 mi NW 8.1 mph - N/A   Overcast